0 HST 1 20580U 90037B 26246.22689652 .00003885 00000-0 11655-3 0 9999 2 20580 28.4725 266.8765 0001484 288.7958 71.2477 15.31541406800544 0 ISS (ZARYA) 1 25544U 98067A 26246.17593850 .00004078 00000-0 82215-4 0 9999 2 25544 51.6312 274.0958 0005015 102.3118 257.8432 15.48977273583844 0 CXO 1 25867U 99040B 26246.06733144 .00000969 00000-0 00000-0 0 9992 2 25867 57.2648 114.5834 7721649 309.5325 0.4326 0.37807753 17611